User: anonymous   Login
Location: Unspecified
(0.0000°N, 0.0000°E)
Time: 17:48:41
(UTC+00:00)
Language:

CUTE 1.7 + AOD 2 - Orbit

View from above orbital plane
View from above orbital plane
View from above satellite
View from above satellite

Ground track
Ground track

The orbit data is extracted from the following two-line orbital elements,

1 32785U 08021C   17116.45896955  .00000573  00000-0  68289-4 0  9995
2 32785 097.5709 143.0828 0012636 346.9026 013.1861 14.87855772487135
Epoch (UTC): 26 April 2017 11:00:54
Eccentricity: 0.0012636
inclination: 97.5709°
perigee height: 596 km
apogee height: 613 km
right ascension of ascending node: 143.0828°
argument of perigee: 346.9026°
revolutions per day: 14.87855772
mean anomaly at epoch: 13.1861°
orbit number at epoch: 48713

The dashed part of the orbit path shows where the satellite is in the earth's shadow,  

DLR